This is the latest recevied weather packets stored in our database for station/object CRYC. If no packets are shown the sender has not sent any weather packets the latest 10 day(s).
| Time | Temp. | Humidity | Pressure | Rain* | Wind** | Luminosity | Snow |
|---|---|---|---|---|---|---|---|
| 1777817763 | 11.11° C | - | - | 0 mm | 3.58 m/s, 357° | - | - |
| 1777817156 | 11.67° C | - | - | 0 mm | 2.24 m/s, 342° | - | - |
| 1777816548 | 11.67° C | - | - | 0 mm | 1.79 m/s, 291° | - | - |
| 1777815944 | 11.11° C | - | - | 0 mm | 2.24 m/s, 328° | - | - |
| 1777815339 | 10.56° C | - | - | 0 mm | 3.13 m/s, 20° | - | - |
| 1777814735 | 10.56° C | - | - | 0 mm | 3.58 m/s, 302° | - | - |
| 1777814133 | 10.56° C | - | - | 0 mm | 2.68 m/s, 14° | - | - |
| 1777813528 | 10° C | - | - | 0 mm | 3.13 m/s, 321° | - | - |
| 1777812924 | 9.44° C | - | - | 0 mm | 2.24 m/s, 1° | - | - |
| 1777812319 | 9.44° C | - | - | 0 mm | 1.79 m/s, 326° | - | - |
| 1777811715 | 10° C | - | - | 0 mm | 3.13 m/s, 333° | - | - |
| 1777811111 | 10.56° C | - | - | 0 mm | 2.68 m/s, 309° | - | - |
| 1777810506 | 9.44° C | - | - | 0 mm | 3.13 m/s, 359° | - | - |
| 1777809899 | 8.89° C | - | - | 0 mm | 1.79 m/s, 300° | - | - |
| 1777809287 | 8.89° C | - | - | 0 mm | 3.13 m/s, 359° | - | - |
| 1777808682 | 10° C | - | - | 0 mm | 1.34 m/s, 330° | - | - |
| 1777808074 | 8.89° C | - | - | 0 mm | 3.58 m/s, 332° | - | - |
| 1777807471 | 8.33° C | - | - | 0 mm | 2.68 m/s, 321° | - | - |
| 1777806864 | 9.44° C | - | - | 0 mm | 2.24 m/s, 359° | - | - |
| 1777806259 | 7.22° C | - | - | 0 mm | 2.68 m/s, 3° | - | - |
| 1777805654 | 7.22° C | - | - | 0 mm | 1.34 m/s, 326° | - | - |
| 1777805048 | 6.67° C | - | - | 0 mm | 0.89 m/s, 283° | - | - |
| 1777804444 | 6.11° C | - | - | 0 mm | 1.79 m/s, 339° | - | - |
| 1777802629 | 6.11° C | - | - | 0 mm | 0.45 m/s, 21° | - | - |
| 1777802024 | 6.67° C | - | - | 0 mm | 1.34 m/s, 359° | - | - |
* Rain latest hour (hover to see other rain measurements)
** Current wind speed in m/s (hover to see current wind gust speed)